Other Public Products
Issued by NWS Grand Forks, ND

Home | Current Version | Previous Version | Graphics & Text | Print | Product List | Glossary On
Versions: 1 2 3 4 5 6 7 8 9 10 11 12 13 14 15 16 17 18 19 20 21 22 23 24 25 26 27 28 29 30 31 32 33 34 35 36 37 38 39 40 41 42 43 44 45 46 47 48 49 50
000
FPUS83 KFGF 040831
OPUFGF
PRAIRIE TO PINES WEATHER ROUNDUP
NATIONAL WEATHER SERVICE EASTERN NORTH DAKOTA/GRAND FORKS ND
300 AM CDT FRI SEP 04 2015

 **SATELLITE DATA USED TO AUGMENT SKY COVER AT AUTOMATED STATIONS**
 *****  WEATHER ACROSS EASTERN NORTH DAKOTA  *****

CITY           SKY/WX    TMP DP  RH WIND       PRES   REMARKS
GRAND FORKS    PTCLDY    74  72  93 SE8       29.77S
GRAND FORKS AF CLOUDY    76  73  92 S12       29.77F
GRAND CITY NWS   N/A     73 N/A N/A SE13        N/A
BUXTON         NOT AVBL
DEVILS LAKE    PTCLDY    75  66  73 S9        29.73F
FARGO          PTCLDY    77  72  84 SE14      29.77F
WAHPETON ARPT  MOSUNNY   73  70  88 SE12      29.79S
$$

 *****  WEATHER ACROSS CENTRAL AND WESTERN NORTH DAKOTA  *****

CITY           SKY/WX    TMP DP  RH WIND       PRES   REMARKS
JAMESTOWN      PTCLDY    74  71  91 SE10      29.74F
BISMARCK         N/A     76  70  82 E10       29.71S
MINOT          PTCLDY    66  61  84 W8        29.72F
MINOT AFB      PTCLDY    65  65  99 NW6       29.72S
GARRISON         N/A     69  66  90 NE5       29.72F
WILLISTON      MOCLDY    66  42  41 N21G28    29.82S
DICKINSON      CLOUDY    68  65  90 N14       29.73R FOG
HETTINGER      CLOUDY    73  56  54 SE9       29.72S
$$

 *****  OTHER OBSERVATIONS NORTHEAST NORTH DAKOTA  *****

CITY           SKY/WX    TMP DP  RH WIND       PRES   REMARKS
WALHALLA       FAIR      75  75 100 MISG      29.74S
LANGDON        FAIR      75  73  94 S12       29.78R
CAVALIER       FAIR      75  73  94 S12G18    29.75R
GRAFTON        FAIR      75  75 100 SE12      29.77S
CANDO          FAIR      72  68  88 SE6       29.75S
FORT TOTTEN      N/A     75  72  91 S12       29.95S
ROLLA          FAIR      72  68  88 S9        29.76S
RUGBY          FAIR      73  68  83 S8        29.72S
 ***** THE ABOVE OBSERVATIONS ARE NON NWS ARE NOT QUALITY
        CONTROLLED AND MAY MIS-REPORT RAIN FOR SNOW...
$$

 *****  OTHER OBSERVATIONS SOUTHEAST NORTH DAKOTA *****

CITY           SKY/WX    TMP DP  RH WIND       PRES   REMARKS
COOPERSTOWN    NOT AVBL
VALLEY CITY    CLOUDY    75  75 100 SE10      29.77S
OAKES            N/A     72  72 100 E9        29.75S
GWINNER        CLOUDY    75  75 100 SE12G17   29.76F
SHEYENNE NWR     N/A     75  74  95 SE12      29.95
BUFFALO        NOT AVBL
WYNDMERE         N/A     75  73  94 SE6         N/A
 ***** THE ABOVE OBSERVATIONS ARE NON NWS ARE NOT QUALITY
       CONTROLLED AND MAY MIS-REPORT RAIN FOR SNOW...
$$

  *****  WEATHER ACROSS NORTHERN MINNESOTA  *****

CITY           SKY/WX    TMP DP  RH WIND       PRES   REMARKS
FLAG ISLAND    MOCLDY    70  64  83 S21       29.85R
WARROAD        CLOUDY    70  66  88 S7        29.85S
ROSEAU         CLOUDY    70  64  83 S9        29.84R
HALLOCK        MOCLDY    75  72  88 SE9       29.78S
THF RVR FALLS  CLOUDY    72  70  94 SE9       29.83R
HALSTAD        NOT AVBL
FOSSTON        MOCLDY    72  66  83 SE10      29.85R
BAUDETTE       LGT RAIN  66  62  87 SE16      29.88F
WASKISH        MOCLDY    66  63  88 E6        29.90S
CROOKSTON      MOCLDY    73  72  94 SE9       29.80S
$$
  *****  WEATHER ACROSS CENTRAL AND WEST MINNESOTA  *****

CITY           SKY/WX    TMP DP  RH WIND       PRES   REMARKS
BEMIDJI        CLOUDY    68  64  89 SE10      29.89F
PARK RAPIDS    PTCLDY    71  66  84 E7        29.88S
WADENA         PTCLDY    70  66  88 SE8       29.87S
DETROIT LAKES  CLOUDY    73  70  88 SE14G20   29.86S
MOORHEAD       PTCLDY    75  72  88 SE8       29.79S
FERGUS FALLS   MOCLDY    75  73  94 SE13      29.80F
ELBOW LAKE     FAIR      73  72  95 SE10      29.82S
MORRIS MN      MOCLDY    75  73  94 SE10      29.81S FOG
STAPLES        PTCLDY    68  66  94 E5        29.88F
WHEATON        PTCLDY    72  70  94 E9        29.80S FOG
$$
  *****  WEATHER ELSEWHERE ACROSS MINNESOTA  *****

CITY           SKY/WX    TMP DP  RH WIND       PRES   REMARKS
DULUTH         CLEAR     56  53  90 E9        30.00R
INTRNTL FALLS  PTCLDY    56  53  90 SE7       29.94F
ELY            CLEAR     50  48  93 CALM      30.01S
CLOQUET        PTCLDY    55  54  94 E3        29.99S
BRAINERD       PTCLDY    68  65  90 VRB5      29.91F
HIBBING        CLEAR     51  49  92 CALM      29.99S
ALEXANDRIA     CLOUDY    72  71  97 SE15      29.87F
SAINT CLOUD    FAIR      70  68  93 SE7       29.89S
MINNEAPOLIS    CLEAR     72  68  87 SE12      29.91R
$$

  *****  WEATHER ACROSS SOUTH DAKOTA  *****

CITY           SKY/WX    TMP DP  RH WIND       PRES   REMARKS
SIOUX FALLS    PTCLDY    76  69  79 S12       29.80F
BROOKINGS      MOCLDY    73  70  88 SE12      29.82S
WATERTOWN      PTCLDY    75  71  87 SE10      29.79S
HURON          PTCLDY    75  70  84 SE12      29.71S
SISSETON         N/A     74  73  97 S6        29.77F
ABERDEEN       PTCLDY    73  70  90 E8        29.72F
MITCHELL       PTCLDY    75  70  84 SE9       29.73F
PIERRE         MOCLDY    72  69  90 CALM      29.67F
MOBRIDGE       CLOUDY    72  72 100 E9        29.69S
RAPID CITY     CLOUDY    72  52  49 S8        29.78R
$$

  *****  SOME WEATHER IN NEARBY STATES *****

CITY           SKY/WX    TMP DP  RH WIND       PRES   REMARKS
GLASGOW MT     MOCLDY    60  38  43 NE25G32   29.81F
GREAT FALLS MT LGT RAIN  49  48  97 E9        30.01F VSB 1/4
CHEYENNE WY    CLEAR     53  44  71 W9        30.01F
SCOTTSBLUFF NE CLEAR     61  57  87 E6        29.86S
OMAHA NE       PTCLDY    75  68  78 SE15      29.87S
DES MOINES IA  PTCLDY    74  68  81 S8        29.92F
DAVENPORT IA   CLEAR     70  69  97 SW3       29.95S
CHICAGO IL     PTCLDY    70  67  90 N3        29.97R
EAU CLAIRE WI  CLOUDY    70  64  81 E7        29.97S
LA CROSSE WI   MOCLDY    71  66  84 SE6       29.97R
$$

  *****  SOME NATIONAL WEATHER *****

CITY           SKY/WX    TMP DP  RH WIND       PRES   REMARKS
LA GUARDIA NY  MOCLDY    77  67  71 NE7       29.92R
RALEIGH NC     PTCLDY    72  68  87 CALM      29.94R
ATLANTA GA     MOCLDY    71  66  84 NW5       29.98R
NEW ORLEANS LA PTCLDY    76  72  87 CALM      29.94R
OKLAHOMA CITY  PTCLDY    70  64  81 S7        29.92R
ALBUQUERQUE NM MOCLDY    71  49  45 SE6       30.08F
SALT LAKE CITY PTCLDY    76  35  22 S18       29.80R
LOS ANGELES CA CLOUDY    68  57  68 CALM      29.86F
BOISE ID       CLOUDY    56  42  59 CALM      29.85F
SEATTLE WA     PTCLDY    52  47  83 NW3       30.00S
$$

*** WEATHER ACROSS MANITOBA...SASKATCHEWAN AND ONTARIO ***
                ***ONTARIO***

CITY           SKY/WX    TMP DP  RH WIND       PRES   REMARKS
GERALDTON      CLEAR     54  54 100 CALM      30.08R
THUNDER BAY    CLEAR     52  52 100 CALM      30.05S
SIOUX LOOKOUT  NOT AVBL
TORONTO        PTCLDY    73  68  83 E7        30.02R
BIG TROUT LK   LGT RAIN  70  57  64 SW8       29.86R
PICKLE LAKE    NOT AVBL
DRYDEN         MOCLDY    66  52  59 S13       29.95S
KENORA         PTCLDY    68  61  77 S10       29.89F
$$
                *** MANITOBA***

CITY           SKY/WX    TMP DP  RH WIND       PRES   REMARKS
BRANDON        CLOUDY    70  68  94 NE20G29   29.74F
DAUPHIN        TSTM      64  57  77 N6        29.85R
ISLAND LAKE    CLOUDY    66  66 100 SE6       29.79S
PILOT MOUND      N/A     77  70  78 S14         N/A
THE PAS        PTCLDY    59  48  67 NW12G18   29.92R
THOMPSON       PTCLDY    55  50  82 NW3       29.85R
WINNIPEG       CLOUDY    79  73  83 S9        29.78R
LYNN LAKE      CLEAR     48  43  81 W7        29.84R
CHURCHILL      CLOUDY    50  48  93 SE8G17    29.77R
$$
                ***SASKATCHEWAN***

CITY           SKY/WX    TMP DP  RH WIND       PRES   REMARKS
ESTEVAN        CLOUDY    64  45  48 N20       29.84F
KINDERSLEY     MOCLDY    50  41  71 N5        30.03
LLOYDMINSTER   PTCLDY    41  37  87 N5        30.04S
PRINCE ALBERT  MOCLDY    48  46  93 NW3       30.00
REGINA         CLOUDY    57  45  62 N16G22    29.92F
YORKTON        MOCLDY    57  48  72 W13       29.95R



USA.gov is the U.S. government's official web portal to all federal, state and local government web resources and services.